www.pogodaiklimat.ru

Погода и климат >> Архив погоды >> Россия >> Ростовская область >> Гигант


АРХИВ ПОГОДЫ в Гиганте

Время (UTC), дата Ветер
(напр.,м/с)
 
Видим.   Явления Облачность Т
(С)
Тd
(С)
f
(%)
Тe
(С)
Тes
(С)
Комфортность P
(гПа)
Po
(гПа)
Тmin
(С)
Tmax
(С)
R
(мм)
R24
(мм)
S
(см)
00 13.09 штиль 0 20 км ясно +12.5 +3.7 55 +12 +12 1023.7 1014.3
03 13.09 В 1 20 км ясно +9.9 +4.8 71 +10 +10 1024.2 1014.7 +9.9
06 13.09 В 3 20 км ясно +21.1 +6.1 38 +22 +26 комфорт 1024.9 1015.7 +9.8
09 13.09 В 4 20 км ясно +25.7 +4.4 25 +25 +32 комфорт 1023.8 1014.7
12 13.09 В 5
{10}
20 км 3/3 1000 м
[Cu hum]
+26.5 +1.9 20 +25 +27 комфорт 1022.2 1013.2
15 13.09 В 4
{10}
20 км 3/3 1000 м
[Sc diur, vesp]
+24.6 +2.0 23 +24 +24 комфорт 1021.8 1012.7 +26.9
18 13.09 В 2 20 км ясно +20.0 +3.1 33 +21 +21 комфорт 1022.3 1013.1
21 13.09 В 2 20 км ясно +17.8 +4.6 42 +18 +18 1022.1 1012.8
00 14.09 СВ 1 н/о н/о +14.8 +5.6 54 +15 +15 1022.1 1012.7
03 14.09 В 1 20 км ясно +10.2 +6.5 78 +10 +10 1022.1 1012.6 +10.2
06 14.09 ЮВ 2 20 км ясно +20.2 +8.1 46 +22 +27 комфорт 1021.8 1012.6 +10.2
09 14.09 ЮВ 5 20 км 4/0
[Ci]
+25.1 +3.8 25 +24 +30 комфорт 1020.1 1011.1
12 14.09 ЮВ 3
{10}
20 км пыльный позёмок ясно +26.8 +2.1 20 +25 +30 комфорт 1018.1 1009.2
15 14.09 ЮВ 2 20 км {метель} 1/0
[Ac cast]
+25.0 +2.9 24 +24 +24 комфорт 1017.1 1008.0 +26.9
18 14.09 В 3 20 км {метель} 1/0
[Ac lent]
+20.5 +2.5 30 +21 +21 комфорт 1017.4 1008.2
21 14.09 В 2 20 км 8/0
[Ac cast]
+17.8 +2.5 36 +18 +18 1017.3 1008.1
00 15.09 штиль 0 20 км 9/0
[Ac lent]
+13.0 +4.1 55 +13 +13 1016.8 1007.4
03 15.09 С 2 20 км 9/5 600 м
[Sc Ac lent]
+12.3 +3.1 53 +12 +12 1017.2 1007.8 +11.6
06 15.09 С 3 20 км 6/0
[Ci fib]
+18.1 +4.9 42 +18 +22 1018.0 1008.8
09 15.09 С 5 20 км 3/0
[Ci fib]
+23.6 +5.9 32 +24 +29 комфорт 1018.4 1009.3
12 15.09 С 4
{10}
20 км 6/3 600 м
[Sc Ac trans Ci fib]
+23.4 +6.4 33 +24 +26 комфорт 1018.6 1009.6
15 15.09 С 2 20 км 3/0
[Ci fib]
+21.5 +4.0 32 +22 +22 комфорт 1019.1 1009.9 +24.2
18 15.09 С 2 20 км ясно +15.4 -0.3 34 +16 +16 1020.8 1011.5
21 15.09 штиль 0 20 км 1/0
[Ci fib]
+9.8 +0.4 52 +10 +10 1020.7 1011.2
00 16.09 С 2 20 км ясно +8.2 +0.2 57 +7 +7 1020.4 1010.8
03 16.09 штиль 0 20 км ясно +6.8 +0.8 66 +6 +6 1019.9 1010.3 +6.6
06 16.09 Ю 1 20 км ясно +19.5 +3.8 35 +21 +27 комфорт 1018.5 1009.3
09 16.09 ЮЗ 2 20 км 3/0
[Ci fib]
+24.0 +1.5 23 +23 +33 комфорт 1015.8 1006.8
12 16.09 З 3 20 км ясно +26.4 +4.0 24 +25 +30 комфорт 1012.9 1004.0
15 16.09 З 2 20 км ясно +24.7 +3.1 25 +24 +24 комфорт 1011.8 1002.8 +26.5
18 16.09 СЗ 2 20 км ясно +19.8 -2.4 22 +20 +20 1012.2 1003.1
21 16.09 З 1 20 км ясно +15.7 +1.3 38 +17 +17 1012.3 1003.0
00 17.09 З 2 20 км ясно +12.1 +0.9 46 +12 +12 1012.0 1002.6
03 17.09 ЮЗ 2 20 км ясно +12.2 +4.7 60 +11 +11 1011.9 1002.5 +11.9
06 17.09 ЮЗ 3 20 км ясно +19.6 +10.1 54 +21 +25 комфорт 1011.3 1002.2
09 17.09 ЮЗ 6-12
{12}
20 км ясно +24.7 +4.3 27 +24 +28 комфорт 1009.6 1000.6
12 17.09 З 4
{12}
20 км пыльный позёмок 1/1 600 м
[Sc diur, vesp]
+26.9 +5.8 26 +26 +30 жарко 1008.0 999.1
15 17.09 З 3 20 км {метель} 9/5 600 м
[Sc diur, vesp Ac cast Ci fib]
+25.0 +6.6 31 +25 +25 комфорт 1007.8 998.9 +27.2
18 17.09 С 3 20 км {метель} 9/6 600 м
[Sc diur, vesp Ci fib]
+19.8 +10.9 56 +21 +21 комфорт 1009.9 1000.8
21 17.09 Ю 1 20 км 10/8 600 м
[Sc diur, vesp Ac As]
+17.9 +10.5 62 +19 +19 1009.9 1000.7
00 18.09 ЮЗ 3
{10}
20 км 10/8 600 м
[Sc diur, vesp Ac und]
+19.1 +12.4 65 +20 +20 1009.6 1000.5
03 18.09 ЮЗ 4
{12}
4000 м слаб. ливневой дождь {метель} 10/9 600 м
[Cb calv Ac cast]
+17.2 +15.2 88 +17 +17 1010.1 1001.0 +17.2 0.1
06 18.09 ЮЗ 3 20 км {ливн. осадки} 9/8 600 м
[Cb cap Ac lent]
+17.4 +16.1 92 +17 +18 1010.7 1001.6 +16.0
09 18.09 ЮЗ 4
{11}
20 км 8/4 600 м
[Sc diur, vesp Ac lent]
+22.4 +15.3 64 +26 +28 жарко 1009.7 1000.7
12 18.09 ЮЗ 7-16
{17}
20 км 9/8 600 м
[Sc Ac cast]
+25.7 +12.9 45 +28 +28 жарко 1006.7 997.9
15 18.09 ЮЗ 7-13
{17}
20 км 8/3 600 м
[Sc Ac lent]
+24.2 +11.7 46 +26 +26 жарко 1006.4 997.5 +25.8 4
18 18.09 З 3
{17}
4000 м слаб. ливневой дождь 10/10 600 м
[Cb cap]
+16.0 +14.7 92 +15 +15 1010.8 1001.6
21 18.09 З 4
{10}
20 км в посл. час ливневой дождь 10/10 600 м
[Cb cap]
+15.3 +8.4 63 +14 +14 1013.4 1004.1
00 19.09 З 2
{10}
20 км {ливн. осадки} 9/3 600 м
[Sc Ac lent]
+12.7 +8.1 74 +12 +12 1015.5 1006.1
03 19.09 З 2 20 км 3/3 600 м
[Sc]
+9.9 +7.1 83 +8 +8 1017.4 1007.9 +9.9 3
06 19.09 З 5 20 км 1/0
[Ac trans]
+13.6 +4.4 54 +12 +14 1019.2 1009.8 +9.8
09 19.09 З 4 20 км 4/3 600 м
[Sc Ci fib]
+16.5 +4.3 44 +16 +21 1019.5 1010.2
12 19.09 З 4
{10}
20 км 6/6 600 м
[Sc]
+18.1 +3.6 38 +18 +20 1019.2 1009.9
15 19.09 ЮЗ 2 20 км 9/4 600 м
[Sc Ac trans]
+17.0 +2.7 38 +17 +17 1019.5 1010.2 +18.3
18 19.09 С 2 20 км 8/5 600 м
[Sc Ac trans]
+13.9 +3.9 51 +14 +14 1020.0 1010.6
21 19.09 штиль 0 20 км 8/3 600 м
[Sc Ac trans Ci fib]
+8.8 +5.6 80 +8 +8 1020.2 1010.6

 

Местоположение метеостанции Гигант (Ростовская область, Россия): широта 46.52 долгота 41.35 высота над уровнем моря 79 м.

В архиве по умолчанию представлена погода в Гиганте за последнюю неделю. Архивные данные за месяц целиком и за предыдущие месяцы, начиная с января 2011 года, Вы можете получить, выбрав интересующий диапазон дат из раскрывающегося списка и нажав кнопку "Ввод!".


*Определитесь, кто Вы:
робот инопланетянин человек

Внимание! Время в таблицах - всемирное. Для получения местного времени необходимо прибавить поправку, которая равна 3 ч.

Смотрите также архив погоды в соседних городах и на ближайших метеорологических станциях:

Погода в Белой Глине (Краснодарский край, Россия) (61 км)
Погода в Городовиковске (Калмыкия, Россия) (69 км)
Погода в Красногвардейском (Ставропольский край, Россия) (77 км)
Погода в Зерноград (Ростовская область, Россия) (87 км)
Погода в Зимовниках (Ростовская область, Россия) (111 км)
Погода в Новоалександровске (Ставропольский край, Россия) (114 км)
Погода в Семикаракорске (Ростовская область, Россия) (118 км)
Погода в Константиновске (Ростовская область, Россия) (119 км)
Погода в Тихорецке (Краснодарский край, Россия) (123 км)
Погода в Сосыке (Краснодарский край, Россия) (125 км)

Пояснения к столбцам:

Ветер - указаны скорость ветра в м/с - средняя за 10 мин, порывы в срок и между сроками (в фигурных скобках) и направление, откуда дует ветер: С - северный, СВ - северо-восточный, В - восточный, ЮВ - юго-восточный, Ю - южный, ЮЗ - юго-западный, З - западный, СЗ - северо-западный.
Видимость - горизонтальная дальность видимости в метрах или километрах. При видимости от 1 до 10 км при отсутствии осадков обычно наблюдается дымка, при ухудшении видимости до 1 км и менее - туман. В сухую погоду видимость может ухудшаться дымом, пылью или мглою.
Явления - указаны атмосферные явления, наблюдавшиеся в срок или в последний час перед сроком; фигурными скобками обозначены явления, наблюдавшиеся между сроками (за 1-3 часа до срока); квадратными скобками обозначены град или гололедные отложения с указанием их диаметра в мм.
Облачность - указаны через наклонную черту общая и нижняя облачность в баллах и высота нижней границы облаков в метрах; квадратными скобками обозначены формы облаков: Ci - перистые, Cs - перисто-слоистые, Cc - перисто-кучевые, Ac - высококучевые, As - высокослоистые, Sc - слоисто-кучевые, Ns - слоисто-дождевые, Cu - кучевые, Cb - кучево-дождевые. Подробнее классификацию облаков см. в Атласе облаков (PDF).
T - Температура воздуха - температура, измеренная на высоте 2 м над землей.
Td - Температура точки росы - температура, при понижении до которой содержащийся в воздухе водяной пар достигнет насыщения.
f - Относительная влажность воздуха - влажноcть воздуха, измеренная на высоте 2 м над землей.
Te - Эффективная температура - температура, которую ощущает одетый по сезону человек в тени. Характеристика душности погоды. При расчете учитывается влияние влажности воздуха и скорости ветра на теплоощущения человека.
Tes - Эффективная температура на солнце - температура, которую ощущает человек, с поправкой на солнечный нагрев. Характеристика знойности погоды. Зависит от высоты солнца над горизонтом, облачности и скорости ветра. Ночью, в пасмурную погоду, а также при ветре 12 м/с и более поправка равна нулю.
P - Атмосферное давление - приведенное к уровню моря атмосферное давление.
Po - Атмосферное давление - измеренное на уровне метеостанции атмосферное давление.
Tmin - Минимальная температура - минимум температуры воздуха на высоте 2 м над землей.
Tmax - Максимальная температура - максимум температуры воздуха на высоте 2 м над землей.
R - Количество осадков - Количество выпавших осадков за период времени, мм. При наведении курсора мыши на число - период времени, за который выпало указанное количество осадков.
R24 - Количество осадков - Количество выпавших осадков за 24 часа, мм.
S - Снежный покров - Высота снежного покрова, см. При наведении курсора мыши на число - состояние снежного покрова и степень покрытия местности в баллах.